Home   Weather   Muscat   Past weeks

Flag for Oman Past Weather in Muscat, Oman — Yesterday and Last 2 Weeks

Now
90 °F

Haze.


Feels Like: 98 °F
Forecast: 86 / 92 °F
Wind: 9 mph from Northeast

Location: International Airport

Current Time: Apr 29, 2017 at 5:51:08 pm

Latest Report: Apr 29, 2017 at 4:50 pm


Visibility: 4 mi

Pressure: 29.77 "Hg

Humidity: 59%

Dew Point: 73 °F

Location of MuscatLocation

Past Weather in Muscat — Graph

°F

Muscat Temperature Yesterday

Maximum temperature yesterday: 99 °F (at 8:50 am)
Minimum temperature yesterday: 84 °F (at 4:50 am)
Average temperature yesterday: 90 °F

High & Low Weather Summary for the Past Weeks

 TemperatureHumidityPressure
High104 °F (Apr 19, 9:50 am)89% (Apr 28, 4:50 am)29.86 "Hg (Apr 28, 4:50 am)
Low79 °F (Apr 22, 5:50 am)10% (Apr 14, 4:50 pm)29.62 "Hg (Apr 21, 2:50 pm)
Average91 °F39%29.72 "Hg
* Reported Apr 14 3:50 pm — Apr 29 3:50 pm, Muscat, Weather by CustomWeather, © 2017

Note: Actual official high and low records may vary slightly from our data, if they occured in-between our weather recording intervals... More about our weather records

Advertising

Muscat Weather History for the Previous 24 Hours

Scroll right to see more
 ConditionsComfort  
Time TempWeatherWind HumidityBarometerVisibility
3:50 pm
Sat, Apr 29
90 °FClear.13 mph71%29.77 "Hg4 mi
2:50 pm90 °FClear.14 mph59%29.77 "Hg5 mi
1:50 pm93 °FClear.9 mph56%29.80 "Hg6 mi
12:50 pm91 °FClear.13 mph71%29.83 "Hg6 mi
11:50 am95 °FClear.7 mph56%29.83 "Hg6 mi
10:50 am91 °FClear.7 mph63%29.86 "Hg6 mi
9:50 am91 °FClear.7 mph56%29.86 "Hg6 mi
8:50 am91 °FClear.7 mph63%29.83 "Hg6 mi
7:50 am86 °FClear.2 mph75%29.80 "Hg6 mi
6:50 am86 °FClear.5 mph79%29.80 "Hg6 mi
5:50 am84 °FClear.3 mph84%29.80 "Hg5 mi
4:50 am84 °FClear.5 mph84%29.77 "Hg6 mi
3:50 am84 °FClear.7 mph84%29.77 "Hg6 mi
2:50 am86 °FClear.8 mph75%29.77 "Hg6 mi
1:50 am86 °FClear.3 mph79%29.74 "Hg6 mi
12:50 am86 °FClear.3 mph59%29.74 "Hg6 mi
11:50 pm
Fri, Apr 28
86 °FClear.7 mph59%29.77 "Hg6 mi
10:50 pm86 °FClear.2 mph75%29.77 "Hg6 mi
9:50 pm86 °FClear.2 mph75%29.77 "Hg6 mi
8:50 pm88 °FClear.2 mph70%29.77 "Hg6 mi
7:50 pm88 °FClear.5 mph70%29.77 "Hg6 mi
6:50 pm90 °FPassing clouds.6 mph59%29.74 "Hg6 mi
5:50 pm90 °FScattered clouds.12 mph55%29.74 "Hg6 mi
Weather by CustomWeather, © 2017

See weather overviewHow to use our weather pages